Location: ??
(35.4627°N, 139.3695°E)
Time: 15:53:29
(UTC+00:00)

Envisat - Pass Details

Date: 25 November 2020
Orbit: 764 x 766 km, 98.1° (Epoch: 21 January)

Event Time Altitude Azimuth Distance (km) Brightness Sun altitude
Rises 20:45:15 0° 9° (N) 3,239 6.1 -9.0°
Reaches altitude 10° 20:47:34 10° 8° (N) 2,309 5.4 -8.5°
Maximum altitude 20:52:38 72° 285° (WNW) 806 3.0 -7.6°
Drops below altitude 10° 20:57:40 10° 201° (SSW) 2,293 5.5 -6.6°
Sets 20:59:58 0° 199° (SSW) 3,215 6.3 -6.2°
